Home > Weather > Aurora > Past weeks

Flag for USA Past Weather in Aurora, Illinois, USA — Yesterday and Last 2 Weeks

Now
75 °F

Passing clouds.


Feels Like: 76 °F
Forecast: 72 / 89 °F
Wind: 12 mph from Southwest

Location: Dupage Airport

Current Time: Jun 26, 2016 at 7:00:35 AM

Latest Report: Jun 26, 2016 at 5:52 AM


Visibility: 10 mi

Pressure: 29.97 "Hg

Humidity: 79%

Dew Point: 68 °F

Location of AuroraLocation

Past Weather in Aurora — Graph

°F

Aurora Temperature Yesterday

Maximum temperature yesterday: 88 °F (at 2:52 PM)
Minimum temperature yesterday: 64 °F (at 2:52 AM)
Average temperature yesterday: 78 °F

High & Low Weather Summary for the Past Weeks

 TemperatureHumidityPressure
High91 °F (Jun 20, 4:52 PM)94% (Jun 23, 3:59 AM)30.23 "Hg (Jun 23, 3:59 AM)
Low54 °F (Jun 13, 1:52 AM)26% (Jun 12, 5:52 PM)29.68 "Hg (Jun 15, 8:52 PM)
Average74 °F62%29.97 "Hg
* Reported Jun 11 4:52 AM — Jun 26 4:52 AM, Aurora, Weather by CustomWeather, © 2016

Note: Actual official high and low records may vary slightly from our data, if they occured in-between our weather recording intervals... More about our weather records

Advertising

Aurora Weather History for the Previous 24 Hours

Scroll right to see more
 ConditionsComfort  
Time TempWeatherWind HumidityBarometerVisibility
4:52 AM
Sun, Jun 26
75 °FClear.9 mph79%29.93 "Hg10 mi
3:52 AM76 °FClear.10 mph80%29.93 "Hg10 mi
2:52 AM76 °FClear.7 mph80%29.93 "Hg10 mi
1:52 AM77 °FClear.9 mph77%29.94 "Hg10 mi
12:52 AM78 °FClear.9 mph74%29.96 "Hg10 mi
11:52 PM
Sat, Jun 25
79 °FClear.10 mph74%29.97 "Hg10 mi
10:52 PM80 °FClear.8 mph74%29.99 "Hg8 mi
9:52 PM81 °FClear.10 mph72%29.98 "Hg10 mi
8:52 PM82 °FScattered clouds.8 mph70%29.96 "Hg10 mi
7:52 PM84 °FSunny.12 mph65%29.94 "Hg10 mi
6:52 PM85 °FPassing clouds.14 mph63%29.96 "Hg10 mi
5:52 PM88 °FPassing clouds.9 mph59%29.97 "Hg10 mi
4:52 PM86 °FPassing clouds.12 mph59%29.99 "Hg10 mi
3:52 PM88 °FPassing clouds.13 mph57%30.00 "Hg10 mi
2:52 PM88 °FPassing clouds.14 mph57%30.01 "Hg10 mi
1:52 PM87 °FSunny.14 mph57%30.03 "Hg10 mi
12:52 PM86 °FSunny.13 mph55%30.03 "Hg10 mi
11:52 AM84 °FSunny.12 mph57%30.04 "Hg10 mi
10:52 AM82 °FSunny.10 mph60%30.06 "Hg10 mi
9:52 AM80 °FSunny.14 mph62%30.06 "Hg10 mi
8:52 AM78 °FSunny.8 mph64%30.09 "Hg10 mi
7:52 AM74 °FSunny.6 mph71%30.08 "Hg10 mi
Weather by CustomWeather, © 2016

See weather overviewHow to use our weather pages